User: anonymous   Login
Location: Unspecified
(40.7945°N, 0.0000°E)
Time: 22:23:04
(UTC+00:00)
Language:

Altair - Orbit

View from above orbital plane
View from above orbital plane
View from above satellite
View from above satellite

Ground track
Ground track

The orbit data is extracted from the following two-line orbital elements,

1 00050U 60009B   21129.53033298 -.00000066  00000-0  17330-3 0  9998
2 00050  47.2298 189.2364 0114458 217.6554 141.6181 12.20117188710039
Epoch (UTC): 09 May 2021 12:43:40
Eccentricity: 0.0114458
inclination: 47.2298°
perigee height: 1501 km
apogee height: 1683 km
right ascension of ascending node: 189.2364°
argument of perigee: 217.6554°
revolutions per day: 12.20117188
mean anomaly at epoch: 141.6181°
orbit number at epoch: 71003

The dashed part of the orbit path shows where the satellite is in the earth's shadow,  

DLR